DECAYED

STARLINK-11532, 62596 (Decayed)

Orbit data source: Space-Track

STARLINK-11532, 62596 was a payload satellite owned by SpaceX/Seattle (US) in LEO that was launched on Mon, 13 Jan 2025 UTC via an FALCON 9 launch vehicle from the Air Force Eastern Test Range (AFETR). Payload-class satellites include a variety of spacecraft equipped with specific instruments for various scientific and technological missions. These include communications satellites like Starlink; space stations such as the ISS; scientific satellites like the Hubble; Earth observation satellites from companies like Planet Labs, Umbra, and HawkEye 360; GPS; miniature CubeSats for education and research; and military/defense satellites.

Not visible in the next 10 days
Identifier
62596, 2025-008K
Orbit
Decayed
Country
Flag of USUS
Related business
Manufacturer
SpaceX/Seattle
Mission
Decayed Commercial Communications
Bus & Motor
STARLINK V2MD, Unknown motor
Mass
960 kg wet, ~910 kg dry
Launch date (UTC)
2025-01-13 (1 year ago)
Launch vehicle
FALCON 9
Launch site
Air Force Eastern Test Range (AFETR)
Object type
Payload
Rocket body
Debris
Shape & HBR
Box + 2 Pan, 18.1 m
Radar Cross Section
36.964 m², Large (>1 m²)

Expand to show TLE details & history
Last TLE update: 6 months ago

TLE from 6 months ago
0 STARLINK-11532
1 62596U 25008K   25214.25002315  .04136349  89309-5  19453-2 0  9993
2 62596  42.9852   1.0851 0010969 301.4257 221.7139 16.20457176 32630
Epoch: 2025-08-02T06:00Z
TLE epoch observation values (Epoch: 2025-08-02T06:00:02.000Z)
Latitude
11.47362°
Longitude
127.48256°
Altitude
222.711 km
Speed
7.773 km/s
True Right ascension
11h 14m 19s
True Declination
11° 24' 05"
Sunlit
Object was in daylight at epoch
Visualization orbit readout
Latitude
Unknown
Longitude
Unknown
Altitude
Unknown
Speed
Unknown
Apparent Right ascension
Unknown
Apparent Declination
Unknown
Sunlit
N/A
Visualization observer readout
Local Sidereal Time
13:52:01
Azimuth
Unknown
Elevation
Unknown
Doppler factor
Unknown
Orbital elements
Apogee altitude
227.574 km
Perigee altitude
213.099 km
Semi-major axis
6,598.473 km
Eccentricity
0.0011
Inclination
42.9852°
RAAN
1.0851°
Arg. of periapsis
301.4257°
True anomaly
221.63035°
Mean anomaly
221.7139°
Eccentric anomaly
221.67211°
Mean motion
4.04928 °/min
Orbital period
88.9 mins
BSTAR
0.0019453
Loading maneuver chart data...
Computing Atmospheric mass density...
Loading historical data...
Loading historical data...
Loading historical data...
Loading historical data...
Loading historical data...
Loading historical data...
Loading historical data...

Documentation

Showing up to 5 results
|